Location: Unspecified
(42.3650°N, 71.1030°W)
Time: 15:44:35
(UTC+00:00)

S-56A Canister/Altair - Pass Details

Date: 26 June 2024
Orbit: 638 x 2487 km, 38.9° (Epoch: 20 July)

Event Time Altitude Azimuth Distance (km) Brightness Sun altitude
Rises 07:45:37 0° 281° (W) 5,536 11.6 -12.5°
Reaches altitude 10° 07:50:07 10° 268° (W) 4,769 11.2 -12.0°
Maximum altitude 07:59:41 23° 224° (SW) 4,100 10.6 -10.7°
Drops below altitude 10° 08:09:59 10° 180° (S) 5,115 11.3 -9.4°
Sets 08:15:09 0° 168° (SSE) 6,024 11.8 -8.7°
